Theta_e
326 324 322 321 320 319 316 316 316 317 318 318 318 317 317 316 315 314 313 312 311 310 309 309 309 309 309 308 308 308 308 309 313 323 338 342 342 342 344 341 339 337 337
326 324 323 322 322 320 318 318 318 318 318 318 318 319 318 317 317 316 316 315 315 314 312 311 310 309 309 309 309 309 309 307 307 308 313 324 337 341 342 342 341 337 334
326 325 323 323 322 321 320 319 319 319 319 319 319 319 318 318 317 317 316 316 315 316 316 316 315 313 313 312 310 309 310 310 309 307 307 308 321 337 340 341 341 340 335
326 325 324 324 323 322 320 320 320 319 319 319 319 319 318 318 318 318 317 317 316 316 317 317 318 320 322 323 322 315 310 310 311 310 308 307 310 333 341 340 341 341 338
325 325 324 325 324 323 321 321 320 319 319 319 319 319 319 319 319 319 319 318 317 316 318 318 319 321 323 326 327 326 325 316 312 313 312 308 306 324 341 341 341 340 341
325 325 324 325 325 324 322 321 320 320 319 319 319 319 319 320 320 321 321 320 319 317 319 321 319 320 326 330 332 332 332 329 327 315 315 313 307 311 334 340 339 340 340
326 326 325 325 325 324 323 321 321 320 319 319 319 319 320 320 320 321 321 321 321 320 320 321 321 321 322 325 329 325 330 329 327 329 318 316 312 307 321 333 335 331 337
327 326 326 326 325 325 324 322 321 321 320 319 319 319 320 320 320 321 321 321 321 321 322 323 322 324 324 324 323 322 320 318 318 326 327 319 316 311 318 324 329 332 334
329 328 329 328 326 324 323 322 321 321 320 320 319 319 319 320 320 321 321 321 321 321 323 323 324 326 327 326 325 324 322 320 319 316 329 324 321 316 321 325 325 328 330
332 331 330 328 327 326 324 322 321 320 320 320 320 319 319 319 320 320 321 321 321 321 323 323 324 325 325 326 325 325 324 324 324 319 317 329 322 321 324 324 324 326 326
331 331 332 331 331 328 325 323 321 321 320 319 319 319 319 319 319 320 320 320 321 322 323 324 324 327 327 326 327 326 326 325 323 319 316 321 325 323 324 325 325 325 326
332 331 331 332 332 331 328 325 323 322 321 320 320 319 319 319 319 319 320 320 321 323 324 326 326 330 329 327 327 327 326 323 323 317 315 317 326 323 326 326 324 325 328
332 332 331 332 333 333 333 332 329 326 323 322 321 320 319 318 318 318 319 320 321 322 323 327 327 329 331 328 327 328 327 325 322 323 325 322 321 325 324 329 327 326 328
331 332 332 332 333 333 333 333 333 331 328 327 324 323 320 319 317 318 318 319 320 321 322 329 329 329 331 330 328 328 328 327 327 327 327 326 326 322 324 324 327 327 329
328 330 330 330 330 331 332 332 333 333 333 329 327 326 322 321 318 317 318 318 319 320 321 327 331 329 330 331 330 330 328 329 327 327 326 327 327 325 322 323 324 327 329
327 327 327 327 327 328 329 329 330 332 333 333 331 330 326 323 320 318 319 320 318 320 320 327 334 330 330 331 329 330 330 328 329 328 327 327 326 327 326 327 326 326 330
326 326 326 326 328 328 328 328 329 329 331 332 333 333 332 329 325 320 320 321 319 319 322 333 334 332 331 330 329 331 330 329 330 328 327 327 325 326 326 327 327 327 329
326 325 326 326 326 327 328 328 328 328 330 331 331 332 332 333 333 328 324 322 322 322 323 335 333 332 331 329 328 330 330 329 329 329 328 327 325 325 326 327 327 328 329
325 325 326 327 327 327 327 328 328 329 329 329 331 331 332 335 337 336 330 325 326 326 332 333 332 332 332 330 330 331 329 327 328 327 327 327 326 325 326 326 328 329 329
324 326 326 327 326 326 328 327 328 329 329 329 331 333 335 337 338 335 335 336 333 332 335 331 331 331 332 332 329 327 327 327 327 327 327 327 326 325 326 326 329 327 327
325 325 326 326 327 326 328 328 329 329 328 329 332 335 337 339 338 338 339 338 337 334 332 329 330 331 331 328 328 326 327 327 327 326 327 326 327 326 326 326 328 328 328
323 324 324 325 327 328 328 328 328 328 328 331 335 338 340 340 340 340 340 335 333 332 332 331 330 328 328 328 326 327 327 326 325 325 326 326 325 324 325 326 328 326 326
323 323 323 324 327 327 328 328 328 329 330 334 337 340 341 342 342 339 334 332 332 332 333 330 330 328 328 327 327 327 325 325 324 326 326 326 324 324 326 327 328 327 325
322 322 322 324 327 327 327 328 329 330 333 336 339 341 341 341 338 336 331 332 332 332 331 331 329 328 327 327 327 326 324 324 325 324 324 323 323 324 326 326 325 325 326
319 321 324 325 328 328 329 330 333 335 338 340 341 340 338 336 333 333 332 331 331 331 332 330 327 326 326 326 324 324 325 324 322 324 324 324 324 326 325 326 326 325 325
322 321 324 327 329 330 333 334 337 339 340 341 340 338 336 333 331 331 332 332 331 332 331 327 324 325 325 325 325 323 323 323 323 323 323 325 325 326 326 326 325 327 327
Wind_Speed
23 21 20 18 14 12 13 14 14 13 12 12 12 12 12 10 8 5 4 3 3 4 5 7 8 8 9 9 9 10 11 12 13 12 11 8 6 8 6 6 6 7 7
19 22 20 18 14 13 13 13 13 13 12 12 11 10 10 10 9 7 5 3 2 2 2 4 5 5 5 7 8 9 9 9 10 13 13 12 10 9 10 6 7 8 8
20 22 21 18 15 13 14 15 15 13 12 11 10 10 9 8 8 7 5 4 2 2 1 2 2 2 3 4 6 7 8 8 8 10 12 13 11 10 9 8 8 8 10
21 22 21 17 15 15 16 15 16 15 13 12 11 10 9 8 7 6 4 3 2 1 1 1 0 1 1 2 3 5 6 6 6 8 9 11 13 11 10 10 8 9 10
22 22 18 14 15 16 15 16 18 17 15 15 13 11 9 7 5 4 4 3 2 1 1 1 1 2 3 2 3 4 5 5 6 6 8 9 12 14 13 11 11 11 12
21 19 16 13 14 16 17 18 19 19 18 17 14 12 10 8 6 4 3 2 2 1 2 2 2 3 4 5 6 6 7 6 5 6 7 9 10 15 16 14 12 11 11
19 18 16 14 15 18 18 20 21 22 21 18 16 14 13 12 9 7 5 3 1 0 1 2 3 4 4 6 8 10 10 11 10 7 7 8 9 12 15 15 13 12 10
17 16 16 16 19 18 20 22 24 23 22 21 20 18 17 16 14 11 9 6 3 1 1 2 3 4 5 7 10 11 11 12 12 11 8 8 9 11 13 12 12 10 10
18 14 15 18 22 24 26 27 26 26 25 24 24 23 22 21 18 16 13 10 6 3 3 4 4 4 6 8 9 11 12 11 12 13 12 10 10 11 12 14 13 10 9
12 16 20 23 25 27 29 31 31 28 29 28 27 27 26 25 23 20 17 13 10 6 6 6 6 5 6 7 7 9 12 14 13 14 15 13 12 13 14 16 15 14 10
18 20 22 25 25 29 31 33 34 33 32 31 31 30 29 30 28 25 21 16 13 10 9 9 8 7 6 7 6 6 8 13 13 12 13 15 14 16 16 16 17 16 13
24 23 25 26 29 32 34 36 36 35 36 36 36 35 35 35 32 28 24 20 17 14 11 12 11 9 7 7 8 8 8 10 10 10 11 14 16 17 19 18 17 17 15
27 26 29 32 34 35 35 37 40 40 40 40 40 39 39 39 35 33 29 25 22 18 15 15 13 11 10 9 9 9 8 6 5 6 5 9 15 18 18 19 18 18 18
31 33 30 34 37 39 40 40 42 43 45 44 43 43 44 42 40 37 33 29 25 20 18 16 15 13 13 11 11 11 10 9 8 7 7 8 10 16 20 20 19 17 18
23 25 28 30 35 41 44 44 45 45 48 48 46 45 46 45 44 38 34 31 27 23 21 19 18 16 15 14 12 13 13 11 11 10 10 9 9 7 13 18 19 18 18
20 20 29 31 33 32 36 41 39 43 48 49 47 46 47 47 47 40 35 32 31 24 23 22 18 17 15 14 15 15 15 15 14 15 15 15 14 12 13 14 17 19 19
29 31 34 34 32 32 29 32 39 38 40 42 42 43 43 44 43 40 35 33 31 27 27 22 18 18 18 17 18 18 17 17 19 16 16 17 15 13 13 14 15 19 19
35 39 36 37 35 36 32 33 34 39 36 36 38 38 37 34 30 31 32 30 28 27 24 22 18 19 19 19 21 21 20 19 19 18 17 16 16 15 13 13 13 19 18
39 36 35 33 33 30 30 32 35 33 32 35 38 36 32 27 23 22 22 23 22 22 20 17 16 19 20 22 23 24 21 21 20 18 19 17 15 15 14 12 11 12 15
35 36 36 34 34 27 28 32 32 30 33 35 35 34 27 21 18 17 17 15 17 19 15 13 17 19 20 22 21 21 21 20 18 17 17 15 16 13 16 14 14 11 9
31 31 30 32 26 29 27 29 30 30 31 34 30 23 19 15 16 17 15 14 12 13 11 11 12 17 20 19 20 20 18 18 19 17 16 15 13 13 17 15 14 11 8
29 25 27 29 25 23 23 27 27 28 31 27 20 15 16 16 16 16 13 10 11 13 14 14 13 17 18 18 17 12 8 11 16 16 16 16 15 14 16 19 18 13 9
33 32 32 29 25 22 23 26 29 25 20 19 18 17 17 16 15 12 9 10 10 14 15 14 15 17 16 15 12 9 4 6 2 8 14 14 14 13 14 19 18 16 14
32 32 34 29 26 25 25 26 23 20 17 16 13 14 16 15 15 15 9 9 9 11 14 14 15 15 14 13 12 13 10 3 2 1 4 12 14 14 13 16 16 14 15
35 33 27 27 24 23 22 20 16 14 12 10 15 16 17 16 15 16 11 11 12 14 14 15 14 11 11 11 11 11 15 14 9 4 1 7 13 13 13 13 13 13 14
21 24 24 22 22 19 17 14 12 13 14 15 18 19 16 16 14 14 14 13 13 13 15 12 9 10 8 10 10 11 12 14 13 11 5 5 12 15 12 12 12 12 12
Wind_Direction
189 187 180 172 166 168 170 166 162 158 151 147 144 139 137 135 133 138 151 168 188 225 241 258 262 253 254 257 251 246 246 244 241 243 250 247 235 235 213 170 168 158 165
171 179 178 174 172 174 170 173 173 168 164 161 154 143 142 140 135 129 124 120 144 187 225 249 258 264 266 266 268 263 253 247 242 241 243 245 244 237 219 197 172 175 173
179 180 179 175 180 184 184 185 181 181 179 175 170 163 156 151 145 138 130 120 119 119 156 188 222 253 276 279 279 276 272 261 252 244 239 241 240 241 232 213 192 184 186
178 183 178 176 190 198 192 192 194 194 189 188 187 181 171 166 156 140 124 106 77 52 67 66 69 281 252 287 289 290 284 274 264 256 246 236 228 228 233 216 208 198 197
183 186 176 177 197 204 202 204 207 206 203 198 197 194 190 186 170 154 136 123 113 63 35 59 317 295 299 290 292 305 307 297 275 261 255 243 227 217 217 220 215 213 210
183 186 185 187 201 212 215 215 216 216 214 211 205 206 209 209 198 192 169 134 94 30 15 351 337 296 295 288 292 294 294 300 295 274 255 253 236 217 220 219 220 221 217
178 184 191 202 213 218 225 222 223 224 221 220 221 220 221 224 222 219 216 195 138 78 348 322 328 309 291 289 274 274 277 280 277 271 258 249 246 225 224 221 223 224 218
191 188 199 214 220 227 230 227 226 230 228 228 230 230 231 230 230 230 231 233 230 276 327 303 311 306 297 285 282 279 272 272 269 259 251 247 239 227 223 218 214 218 225
202 210 218 224 225 228 232 230 229 231 234 233 234 234 235 235 235 233 234 235 240 268 292 292 303 315 315 302 283 277 280 273 271 256 242 240 237 226 216 210 206 208 221
223 231 234 235 235 235 234 236 233 234 236 238 239 239 238 239 238 237 236 235 241 256 268 272 280 296 312 313 303 280 277 277 273 263 242 237 235 227 220 216 216 212 217
231 237 241 244 249 246 240 241 237 235 238 241 243 241 241 241 239 237 239 237 241 249 261 264 265 270 298 311 308 298 293 286 275 265 253 233 232 227 223 223 222 222 222
235 241 245 249 250 248 247 244 245 243 240 241 242 242 242 243 241 241 242 239 241 246 256 259 259 258 273 285 295 300 308 297 273 262 250 233 232 228 226 225 231 227 223
252 247 255 255 254 252 253 254 251 249 246 246 246 246 245 244 241 240 239 238 240 245 255 255 255 260 262 274 282 291 293 300 278 260 244 241 241 235 230 229 229 231 230
265 254 262 262 260 259 254 258 258 254 252 250 249 248 246 246 243 241 242 243 245 246 255 255 257 257 257 262 275 288 278 275 270 254 255 259 260 247 235 234 231 234 229
272 267 268 273 271 265 260 259 257 255 255 253 252 253 251 249 246 240 247 246 247 247 255 259 256 259 261 259 268 283 273 273 266 256 256 261 252 241 234 234 234 233 216
275 277 297 287 285 276 267 261 257 254 255 257 257 258 257 254 250 243 245 252 251 246 259 256 257 264 265 258 267 284 275 263 273 263 256 258 255 249 243 242 235 228 221
291 298 297 297 291 282 275 274 259 253 252 254 257 259 261 258 256 249 249 251 248 249 253 247 248 257 254 254 269 274 273 263 270 269 263 257 250 252 258 243 234 225 221
294 296 293 290 291 289 278 281 266 256 250 250 252 258 262 262 263 255 250 247 249 249 246 244 253 257 254 259 269 275 274 271 268 266 261 257 250 245 247 241 238 222 225
299 300 299 292 290 283 276 272 264 255 245 249 251 256 261 268 267 252 243 239 234 232 234 249 262 260 254 263 266 273 274 270 269 266 257 253 249 244 241 238 225 212 220
295 294 292 293 291 285 274 263 256 242 244 252 255 260 265 262 245 235 234 232 227 222 232 262 271 265 260 260 271 278 276 261 258 260 251 243 239 242 234 231 226 215 213
291 290 291 297 280 280 268 255 241 236 247 252 254 255 254 231 219 220 222 224 211 226 243 258 261 257 262 274 273 273 270 257 255 255 241 232 238 239 228 221 217 206 217
286 289 296 300 274 269 255 247 238 242 246 251 252 244 225 213 210 214 216 240 238 228 237 256 265 272 271 269 267 264 271 264 255 246 239 234 238 241 227 217 207 210 223
286 290 297 295 279 256 247 237 239 240 241 234 226 217 208 205 206 221 226 226 215 227 243 265 273 268 270 263 244 234 217 231 256 232 231 231 233 234 222 213 213 226 220
285 285 290 284 265 249 241 236 238 244 236 230 219 200 195 197 197 197 201 205 230 239 263 269 272 271 257 242 238 233 217 181 174 145 211 216 221 215 211 210 211 215 211
280 279 281 265 248 236 231 233 238 228 220 201 183 184 183 190 193 202 208 224 242 253 268 276 274 260 242 233 234 221 218 229 249 269 53 188 192 201 200 201 207 211 215
271 278 269 250 229 221 220 216 213 209 194 186 183 183 191 192 193 207 224 231 250 266 276 267 249 234 228 228 228 225 226 230 241 238 242 200 189 192 196 198 203 203 203